Tracking 35237 objects as of 5-Sep-2026
HD Live streaming from Space Station
objects crossing your sky now

CO3D1

Track CO3D1 now!
10-day predictions


NORAD ID: 64903
Int'l Code: 2025-156E
Launch date: July 26, 2025
Source: France (FR)
Launch site: FRENCH GUIANA (FRGUI)
Your satellite tracking list
Your tracking list is empty




NASA's NSSDC Master Catalog

Two Line Element Set (TLE):
1 64903U 25156E   26248.26092404  .00002119  00000-0  10096-3 0  9992
2 64903  97.4339 325.7017 0001192  99.3426 260.7944 15.20200942 61699
Source of the keplerian elements: AFSPC